LOT7AY EPKK-EPSY

Flight info

Callsign LOT7AY
Flight time 0h 43m
Altitude 29000
Route NAVUR DCT OVBOR N133 IRBOS DCT RILAB DCT VEKAV T720 IBINO
Aircraft B738/M-SDE2E3FGHIJ1RWXY/LB1

Departure

Time 2026-05-04 13:59
Airport Kraków John Paul II International Airport (EPKK)

Arrival

Time 2026-05-04 14:42
Airport Olsztyn-Mazury Airport (EPSY)
Time Latitude Longitude Altitude Speed Heading
2026-05-04 13:46 50.07487 19.80139 799 ft 0 kts 168°
2026-05-04 13:55 50.07486 19.80139 799 ft 1 kts 168°
2026-05-04 13:56 50.07436 19.80162 799 ft 13 kts 144°
2026-05-04 13:56 50.07439 19.80294 799 ft 13 kts 76°
2026-05-04 13:56 50.07576 19.80423 799 ft 12 kts
2026-05-04 13:57 50.07673 19.80394 799 ft 16 kts 347°
2026-05-04 13:57 50.07785 19.80354 799 ft 16 kts 347°
2026-05-04 13:58 50.08002 19.80128 800 ft 16 kts 258°
2026-05-04 13:58 50.07762 19.78402 801 ft 142 kts 258°
2026-05-04 13:58 50.07539 19.76739 1158 ft 162 kts 258°
2026-05-04 13:59 50.07300 19.75010 1883 ft 166 kts 257°
2026-05-04 13:59 50.07047 19.73234 2463 ft 180 kts 255°
2026-05-04 13:59 50.06399 19.68870 3020 ft 224 kts 256°
2026-05-04 14:00 50.06344 19.66344 3294 ft 252 kts 285°
2026-05-04 14:00 50.08824 19.62451 4893 ft 276 kts 340°
2026-05-04 14:00 50.10776 19.62155 5735 ft 283 kts
2026-05-04 14:01 50.12723 19.62598 6497 ft 290 kts
2026-05-04 14:01 50.14705 19.63249 7313 ft 292 kts 10°
2026-05-04 14:01 50.18742 19.64654 8870 ft 303 kts 10°
2026-05-04 14:02 50.20822 19.65359 9590 ft 309 kts
2026-05-04 14:02 50.22938 19.66060 10298 ft 314 kts
2026-05-04 14:02 50.25157 19.66778 10534 ft 337 kts
2026-05-04 14:02 50.27530 19.67536 10715 ft 360 kts
2026-05-04 14:03 50.30036 19.68333 11111 ft 373 kts
2026-05-04 14:03 50.32597 19.69146 11768 ft 378 kts
2026-05-04 14:03 50.35182 19.69966 12512 ft 380 kts
2026-05-04 14:03 50.37795 19.70793 13221 ft 385 kts
2026-05-04 14:04 50.43091 19.72467 14694 ft 391 kts
2026-05-04 14:04 50.45763 19.73313 15439 ft 393 kts
2026-05-04 14:04 50.48451 19.74164 16193 ft 395 kts
2026-05-04 14:05 50.53870 19.75883 17659 ft 400 kts
2026-05-04 14:05 50.56609 19.76752 18350 ft 403 kts
2026-05-04 14:05 50.59369 19.77630 18962 ft 406 kts
2026-05-04 14:06 50.62148 19.78515 19542 ft 410 kts
2026-05-04 14:06 50.64955 19.79409 20114 ft 413 kts
2026-05-04 14:06 50.67788 19.80313 20685 ft 417 kts
2026-05-04 14:06 50.70641 19.81226 21252 ft 420 kts
2026-05-04 14:07 50.73517 19.82146 21801 ft 423 kts
2026-05-04 14:07 50.76416 19.83075 22360 ft 427 kts
2026-05-04 14:07 50.79335 19.84012 22888 ft 430 kts
2026-05-04 14:07 50.82282 19.84959 23430 ft 433 kts
2026-05-04 14:08 50.85240 19.85911 23912 ft 435 kts
2026-05-04 14:08 50.88211 19.86868 24383 ft 437 kts
2026-05-04 14:08 50.91197 19.87831 24835 ft 439 kts
2026-05-04 14:08 50.94192 19.88798 25267 ft 441 kts
2026-05-04 14:09 51.00198 19.91089 26076 ft 449 kts 19°
2026-05-04 14:09 51.03039 19.93178 26498 ft 453 kts 28°
2026-05-04 14:10 51.08247 19.98688 27510 ft 449 kts 22°
2026-05-04 14:10 51.11218 19.99986 28089 ft 441 kts
2026-05-04 14:10 51.14251 19.99931 28674 ft 433 kts 348°
2026-05-04 14:10 51.17150 19.98725 28985 ft 433 kts 339°
2026-05-04 14:11 51.20011 19.97159 28964 ft 436 kts 338°
2026-05-04 14:11 51.28545 19.92608 28977 ft 429 kts 339°
2026-05-04 14:12 51.34251 19.89658 28974 ft 432 kts 339°
2026-05-04 14:13 51.42853 19.85171 28960 ft 434 kts 340°
2026-05-04 14:13 51.48833 19.83612 28970 ft 437 kts 353°
2026-05-04 14:14 51.54900 19.82943 28958 ft 436 kts 353°
2026-05-04 14:14 51.63972 19.81905 28951 ft 435 kts 352°
2026-05-04 14:15 51.76050 19.80383 28951 ft 436 kts 352°
2026-05-04 14:16 51.82118 19.80893 28960 ft 443 kts
2026-05-04 14:16 51.85123 19.82006 28951 ft 444 kts 10°
2026-05-04 14:17 51.94179 19.85496 28940 ft 447 kts 10°
2026-05-04 14:18 52.02263 19.88528 28940 ft 448 kts 10°
2026-05-04 14:19 52.14432 19.93037 28938 ft 448 kts 10°
2026-05-04 14:19 52.21490 19.95662 28937 ft 447 kts 10°
2026-05-04 14:20 52.26570 19.97558 28928 ft 447 kts 10°
2026-05-04 14:20 52.32628 19.99825 28943 ft 446 kts
2026-05-04 14:21 52.38661 20.02089 28536 ft 442 kts
2026-05-04 14:21 52.41643 20.03212 28263 ft 437 kts
2026-05-04 14:21 52.44590 20.04323 27994 ft 434 kts
2026-05-04 14:21 52.47533 20.05433 27725 ft 433 kts 10°
2026-05-04 14:22 52.50463 20.06539 27464 ft 432 kts 10°
2026-05-04 14:22 52.53351 20.07630 27220 ft 430 kts
2026-05-04 14:22 52.56292 20.08743 26767 ft 426 kts
2026-05-04 14:22 52.59120 20.09817 26318 ft 421 kts 10°
2026-05-04 14:23 52.64781 20.11968 25389 ft 414 kts 10°
2026-05-04 14:23 52.67579 20.13032 24932 ft 411 kts 10°
2026-05-04 14:23 52.70356 20.14091 24478 ft 408 kts 10°
2026-05-04 14:24 52.73111 20.15142 24026 ft 405 kts 10°
2026-05-04 14:24 52.75851 20.16189 23581 ft 403 kts 10°
2026-05-04 14:24 52.78577 20.17231 23054 ft 401 kts 10°
2026-05-04 14:24 52.81289 20.18270 22559 ft 398 kts 10°
2026-05-04 14:25 52.83972 20.19299 22105 ft 394 kts 10°
2026-05-04 14:25 52.89272 20.21337 21207 ft 388 kts 10°
2026-05-04 14:25 52.91889 20.22345 20768 ft 385 kts 10°
2026-05-04 14:26 52.94491 20.23348 20325 ft 382 kts 10°
2026-05-04 14:26 52.97071 20.24344 19903 ft 380 kts 10°
2026-05-04 14:26 52.99637 20.25335 19481 ft 377 kts 10°
2026-05-04 14:26 53.02182 20.26383 19006 ft 379 kts 14°
2026-05-04 14:27 53.04637 20.28099 18389 ft 386 kts 22°
2026-05-04 14:27 53.07036 20.30118 17879 ft 386 kts 24°
2026-05-04 14:27 53.09409 20.32178 17428 ft 383 kts 24°
2026-05-04 14:27 53.11760 20.34221 16971 ft 380 kts 24°
2026-05-04 14:28 53.14106 20.36242 16494 ft 379 kts 24°
2026-05-04 14:28 53.16446 20.38241 16022 ft 377 kts 23°
2026-05-04 14:28 53.18777 20.40219 15580 ft 373 kts 23°
2026-05-04 14:28 53.21071 20.42162 14961 ft 368 kts 23°
2026-05-04 14:29 53.25636 20.46016 13491 ft 367 kts 22°
2026-05-04 14:29 53.30138 20.49822 12243 ft 356 kts 22°
2026-05-04 14:30 53.32316 20.51670 11791 ft 347 kts 22°
2026-05-04 14:30 53.34440 20.53473 11389 ft 338 kts 22°
2026-05-04 14:30 53.38537 20.56952 10625 ft 329 kts 22°
2026-05-04 14:31 53.40561 20.58673 10468 ft 325 kts 22°
2026-05-04 14:31 53.44610 20.62117 10214 ft 319 kts 23°
2026-05-04 14:32 53.48376 20.65343 9915 ft 291 kts 22°
2026-05-04 14:32 53.50161 20.66870 9622 ft 284 kts 22°
2026-05-04 14:32 53.51907 20.68361 9357 ft 281 kts 22°
2026-05-04 14:32 53.53645 20.69846 9088 ft 280 kts 22°
2026-05-04 14:33 53.55407 20.71350 8844 ft 289 kts 22°
2026-05-04 14:33 53.57219 20.72901 8558 ft 294 kts 22°
2026-05-04 14:33 53.59033 20.74459 8242 ft 289 kts 22°
2026-05-04 14:33 53.60793 20.75977 7949 ft 281 kts 22°
2026-05-04 14:34 53.62507 20.77455 7676 ft 273 kts 22°
2026-05-04 14:34 53.64179 20.78896 7424 ft 267 kts 22°
2026-05-04 14:34 53.65832 20.80320 7186 ft 268 kts 22°
2026-05-04 14:34 53.67503 20.81759 6936 ft 273 kts 22°
2026-05-04 14:35 53.69212 20.83231 6673 ft 279 kts 23°
2026-05-04 14:35 53.70933 20.84747 6401 ft 278 kts 27°
2026-05-04 14:35 53.72293 20.87013 6076 ft 278 kts 59°
2026-05-04 14:35 53.72837 20.90078 5775 ft 274 kts 89°
2026-05-04 14:36 53.72585 20.93198 5472 ft 265 kts 112°
2026-05-04 14:36 53.71896 20.96037 5181 ft 259 kts 116°
2026-05-04 14:36 53.71189 20.98794 4906 ft 253 kts 116°
2026-05-04 14:36 53.70502 21.01456 4628 ft 242 kts 120°
2026-05-04 14:37 53.69479 21.03521 4319 ft 221 kts 154°
2026-05-04 14:37 53.68120 21.04320 4090 ft 198 kts 178°
2026-05-04 14:37 53.66809 21.04275 3854 ft 181 kts 198°
2026-05-04 14:37 53.65645 21.03691 3647 ft 170 kts 205°
2026-05-04 14:38 53.64523 21.03037 3465 ft 172 kts 204°
2026-05-04 14:38 53.63390 21.02375 3284 ft 171 kts 203°
2026-05-04 14:38 53.62277 21.01727 3102 ft 168 kts 203°
2026-05-04 14:38 53.61180 21.01092 2894 ft 166 kts 204°
2026-05-04 14:39 53.60100 21.00469 2689 ft 167 kts 203°
2026-05-04 14:39 53.58994 20.99844 2485 ft 168 kts 203°
2026-05-04 14:39 53.57891 20.99221 2279 ft 165 kts 204°
2026-05-04 14:40 53.55819 20.98058 1859 ft 147 kts 206°
2026-05-04 14:40 53.54857 20.97517 1654 ft 145 kts 204°
2026-05-04 14:40 53.53916 20.96986 1458 ft 141 kts 203°
2026-05-04 14:40 53.52944 20.96438 1297 ft 152 kts 202°
2026-05-04 14:41 53.51940 20.95872 1082 ft 150 kts 201°
2026-05-04 14:41 53.50966 20.95351 850 ft 147 kts 201°
2026-05-04 14:41 53.48979 20.94219 476 ft 151 kts 202°
2026-05-04 14:42 53.47958 20.93610 456 ft 9 kts 220°
2026-05-04 14:42 53.47927 20.93646 455 ft 7 kts 83°
2026-05-04 14:42 53.47970 20.93660 457 ft 7 kts 356°
2026-05-04 14:43 53.48052 20.93693 463 ft 18 kts 19°
2026-05-04 14:43 53.48216 20.93784 471 ft 27 kts 18°
2026-05-04 14:43 53.48383 20.93879 471 ft 24 kts 18°
2026-05-04 14:43 53.48538 20.93964 469 ft 23 kts 18°
2026-05-04 14:44 53.48687 20.94048 466 ft 22 kts 18°
2026-05-04 14:44 53.48788 20.94212 464 ft 22 kts 88°
2026-05-04 14:44 53.48751 20.94448 465 ft 19 kts 109°
2026-05-04 14:44 53.48742 20.94493 464 ft 0 kts 108°